Powrót do katalogu

WILDFIRE 7

AktywnyNaukaPO
NORAD 57761·PAYLOAD·🇺🇸 United States

Wystrzelony Sep 2, 2023 z Vandenberg Space Force Base

Loading…

Następne Przeloty (najbliższe 24 godziny)

TLE

ŚwieżeSource: Space-Track

Epoka: Sep 14, 2026, 11:54 UTC

1 57761U 23133E   26257.49603557  .00000045  00000-0  30030-4 0  9998
2 57761  80.9958 282.2422 0006058 144.8985 215.2571 13.85112830153359

Śledź WILDFIRE 7 w czasie rzeczywistym z AllMySat

Download on the App Store